GW2364 Weather Reports


time (UTC)temp
F
wind
direction
speed
knots
gust
knots
rain 1hr
in
rain 24hr
in
rain mn
in
humidity
%
barometer
mb
20260831101502 77 213 0.0 2.6 0.00 0.00 0.00 90 1013.5
20260831100004 77 238 0.0 3.5 0.00 0.00 0.00 90 1013.6
20260831094502 77 238 0.9 3.5 0.00 0.00 0.00 90 1013.6
20260831093001 77 220 0.9 6.1 0.00 0.00 0.00 90 1013.5
20260831091502 77 226 0.9 3.5 0.00 0.00 0.00 89 1013.4
20260831090003 78 219 0.9 4.3 0.00 0.00 0.00 88 1013.4
20260831084600 78 220 1.7 7.0 0.00 0.00 0.00 88 1013.4
20260831084501 78 221 0.9 6.1 0.00 0.00 0.00 88 1013.5
20260831083001 78 221 0.9 4.3 0.00 0.00 0.00 88 1013.5
20260831081501 78 167 0.9 2.6 0.00 0.00 0.00 87 1013.6
20260831080004 78 271 0.0 3.5 0.00 0.00 0.00 86 1013.5
20260831074501 79 250 0.9 4.3 0.00 0.00 0.00 85 1013.5
20260831073004 79 213 0.0 2.6 0.00 0.00 0.00 83 1013.6
20260831071502 79 202 0.0 2.6 0.00 0.00 0.00 81 1013.7
20260831070003 80 223 0.9 5.2 0.00 0.00 0.00 79 1013.6
20260831064501 80 139 0.0 2.6 0.00 0.00 0.00 78 1013.8
20260831063001 81 94 0.9 6.1 0.00 0.00 0.00 77 1013.8
20260831061504 81 239 0.9 4.3 0.00 0.00 0.00 76 1013.5
20260831060006 82 120 0.0 4.3 0.00 0.00 0.00 76 1013.5
20260831054509 82 234 0.0 7.0 0.00 0.00 0.00 75 1013.3
20260831053004 83 61 0.0 4.3 0.00 0.00 0.00 73 1013.2
20260831051507 83 101 0.0 3.5 0.00 0.00 0.00 72 1013.1
20260831050008 84 81 0.0 4.3 0.00 0.00 0.00 70 1013.1
20260831044504 84 97 0.9 2.6 0.00 0.00 0.00 69 1012.9
20260831043004 85 62 0.0 6.1 0.00 0.00 0.00 67 1012.9
20260831041504 85 86 0.9 7.0 0.00 0.00 0.00 66 1012.9
20260831040015 85 119 1.7 6.1 0.00 0.00 0.00 65 1013.0
20260831034504 86 81 1.7 5.2 0.00 0.00 0.00 63 1012.8
20260831033004 86 140 2.6 7.0 0.00 0.00 0.00 62 1012.6
20260831031503 87 40 1.7 6.1 0.00 0.00 0.00 62 1012.5
20260831030007 87 118 1.7 7.0 0.00 0.00 0.00 61 1012.1
20260831024504 88 103 2.6 7.8 0.00 0.00 0.00 61 1012.1
20260831023006 88 32 0.9 5.2 0.00 0.00 0.00 60 1011.8
20260831021504 89 31 0.9 7.0 0.00 0.00 0.00 58 1011.4
20260831020007 90 92 2.6 9.6 0.00 0.00 0.00 54 1011.4
20260831014504 89 53 1.7 4.3 0.00 0.00 0.00 51 1011.0
20260831013004 89 62 0.9 2.6 0.00 0.00 0.00 50 1010.6
20260831011503 90 67 0.9 2.6 0.00 0.00 0.00 50 1010.5
20260831010010 91 88 0.9 2.6 0.00 0.00 0.00 49 1010.6
20260831004504 92 74 0.9 5.2 0.00 0.00 0.00 47 1010.6
20260831003004 92 90 0.9 5.2 0.00 0.00 0.00 46 1010.5
20260831001506 94 60 1.7 6.1 0.00 0.00 0.00 45 1010.5
20260831000007 95 69 1.7 6.1 0.00 0.00 0.00 44 1010.4
20260830234508 96 126 1.7 5.2 0.00 0.00 0.00 42 1010.4
20260830233003 96 60 1.7 7.0 0.00 0.00 0.00 41 1010.5
20260830231503 96 75 1.7 8.7 0.00 0.00 0.00 40 1010.5
20260830230006 97 82 1.7 4.3 0.00 0.00 0.00 39 1010.5
20260830224503 97 43 1.7 5.2 0.00 0.00 0.00 39 1010.6
20260830223003 97 62 1.7 5.2 0.00 0.00 0.00 41 1010.7
20260830221503 97 43 1.7 6.1 0.00 0.00 0.00 41 1010.8
20260830220005 99 102 2.6 6.1 0.00 0.00 0.00 40 1010.7
20260830214503 98 198 0.9 7.0 0.00 0.00 0.00 41 1011.0
20260830213005 98 254 3.5 6.1 0.00 0.00 0.00 40 1011.1
20260830211503 98 86 1.7 7.8 0.00 0.00 0.00 41 1011.5
20260830210006 98 132 0.9 7.0 0.00 0.00 0.00 43 1011.9
20260830204504 98 110 2.6 7.0 0.00 0.00 0.00 43 1011.9
20260830203003 97 86 2.6 7.0 0.00 0.00 0.00 45 1012.1
20260830201503 97 75 2.6 7.8 0.00 0.00 0.00 46 1012.2
20260830200005 97 211 1.7 8.7 0.00 0.00 0.00 46 1012.4
20260830194503 95 40 0.9 8.7 0.00 0.00 0.00 49 1012.6
20260830193009 96 118 2.6 8.7 0.00 0.00 0.00 48 1012.9